Wetterdaten: Sonntag, 09.01.2011
Datum Zeit Temp. A. Feuchte A. Luftdruck Regen Wind Richtung Richtung Sonnenschein UV Solar Windben
09.01.2011 00:00 8,8 C 87 % 1004,3 hPa 0,0 mm 0,0 km/h (0 Bft) S-SW 202 0 min 0 UV-I 0 W/m 1,6 km/h (1 Bft)
09.01.2011 00:10 8,7 C 87 % 1004,1 hPa 0,0 mm 0,0 km/h (0 Bft) N 0 0 min 0 UV-I 0 W/m 0,0 km/h (0 Bft)
09.01.2011 00:20 8,6 C 88 % 1004,0 hPa 0,0 mm 0,0 km/h (0 Bft) N 0 0 min 0 UV-I 0 W/m 0,0 km/h (0 Bft)
09.01.2011 00:30 8,5 C 87 % 1004,1 hPa 0,3 mm 0,0 km/h (0 Bft) N 0 0 min 0 UV-I 0 W/m 0,0 km/h (0 Bft)
09.01.2011 00:40 8,4 C 88 % 1004,0 hPa 0,0 mm 0,0 km/h (0 Bft) N 0 0 min 0 UV-I 0 W/m 0,0 km/h (0 Bft)
09.01.2011 00:50 8,4 C 88 % 1003,9 hPa 0,3 mm 0,0 km/h (0 Bft) N 0 0 min 0 UV-I 0 W/m 0,0 km/h (0 Bft)
09.01.2011 01:00 8,3 C 88 % 1003,9 hPa 0,0 mm 0,0 km/h (0 Bft) N 0 0 min 0 UV-I 0 W/m 0,0 km/h (0 Bft)
09.01.2011 01:10 8,3 C 88 % 1003,8 hPa 0,0 mm 0,0 km/h (0 Bft) N 0 0 min 0 UV-I 0 W/m 0,0 km/h (0 Bft)
09.01.2011 01:20 8,2 C 89 % 1003,6 hPa 0,3 mm 0,0 km/h (0 Bft) S-SW 202 0 min 0 UV-I 0 W/m 1,6 km/h (1 Bft)
09.01.2011 01:30 8,2 C 89 % 1003,7 hPa 0,0 mm 0,0 km/h (0 Bft) N 0 0 min 0 UV-I 0 W/m 0,0 km/h (0 Bft)
09.01.2011 01:40 8,2 C 89 % 1003,6 hPa 0,0 mm 0,0 km/h (0 Bft) N 0 0 min 0 UV-I 0 W/m 0,0 km/h (0 Bft)
09.01.2011 01:50 8,1 C 89 % 1003,4 hPa 0,3 mm 0,0 km/h (0 Bft) N 0 0 min 0 UV-I 0 W/m 0,0 km/h (0 Bft)
09.01.2011 02:00 8,1 C 89 % 1003,4 hPa 0,0 mm 0,0 km/h (0 Bft) N 0 0 min 0 UV-I 0 W/m 0,0 km/h (0 Bft)
09.01.2011 02:10 8,1 C 90 % 1003,4 hPa 0,0 mm 0,0 km/h (0 Bft) S-SW 202 0 min 0 UV-I 0 W/m 1,6 km/h (1 Bft)
09.01.2011 02:20 8,1 C 90 % 1003,5 hPa 0,3 mm 1,6 km/h (1 Bft) S-SW 202 0 min 0 UV-I 0 W/m 9,7 km/h (2 Bft)
09.01.2011 02:30 8,3 C 91 % 1003,5 hPa 0,3 mm 1,6 km/h (1 Bft) SW 225 0 min 0 UV-I 0 W/m 6,4 km/h (2 Bft)
09.01.2011 02:40 8,5 C 91 % 1003,6 hPa 0,3 mm 0,0 km/h (0 Bft) SW 225 0 min 0 UV-I 0 W/m 4,8 km/h (1 Bft)
09.01.2011 02:50 8,6 C 91 % 1003,6 hPa 0,0 mm 0,0 km/h (0 Bft) SW 225 0 min 0 UV-I 0 W/m 3,2 km/h (1 Bft)
09.01.2011 03:00 8,6 C 91 % 1003,7 hPa 0,5 mm 0,0 km/h (0 Bft) SW 225 0 min 0 UV-I 0 W/m 1,6 km/h (1 Bft)
09.01.2011 03:10 8,6 C 91 % 1003,5 hPa 0,0 mm 0,0 km/h (0 Bft) N 0 0 min 0 UV-I 0 W/m 0,0 km/h (0 Bft)
09.01.2011 03:20 8,6 C 91 % 1003,5 hPa 0,0 mm 1,6 km/h (1 Bft) NW 315 0 min 0 UV-I 0 W/m 8,0 km/h (2 Bft)
09.01.2011 03:30 8,6 C 91 % 1003,7 hPa 0,5 mm 3,2 km/h (1 Bft) W 270 0 min 0 UV-I 0 W/m 17,7 km/h (3 Bft)
09.01.2011 03:40 8,6 C 91 % 1003,6 hPa 0,0 mm 3,2 km/h (1 Bft) W 270 0 min 0 UV-I 0 W/m 9,7 km/h (2 Bft)
09.01.2011 03:50 8,5 C 91 % 1003,6 hPa 0,0 mm 0,0 km/h (0 Bft) W 270 0 min 0 UV-I 0 W/m 4,8 km/h (1 Bft)
09.01.2011 04:00 8,4 C 91 % 1003,6 hPa 0,0 mm 1,6 km/h (1 Bft) W 270 0 min 0 UV-I 0 W/m 6,4 km/h (2 Bft)
09.01.2011 04:10 8,4 C 91 % 1003,6 hPa 0,0 mm 0,0 km/h (0 Bft) W 270 0 min 0 UV-I 0 W/m 3,2 km/h (1 Bft)
09.01.2011 04:20 8,3 C 91 % 1003,8 hPa 0,0 mm 0,0 km/h (0 Bft) W 270 0 min 0 UV-I 0 W/m 3,2 km/h (1 Bft)
09.01.2011 04:30 8,3 C 91 % 1003,6 hPa 0,3 mm 0,0 km/h (0 Bft) W 270 0 min 0 UV-I 0 W/m 4,8 km/h (1 Bft)
09.01.2011 04:40 8,2 C 91 % 1003,8 hPa 0,0 mm 1,6 km/h (1 Bft) W 270 0 min 0 UV-I 0 W/m 8,0 km/h (2 Bft)
09.01.2011 04:50 8,2 C 91 % 1003,8 hPa 0,3 mm 3,2 km/h (1 Bft) SW 225 0 min 0 UV-I 0 W/m 9,7 km/h (2 Bft)
09.01.2011 05:00 8,1 C 92 % 1003,9 hPa 0,3 mm 1,6 km/h (1 Bft) W 270 0 min 0 UV-I 0 W/m 14,5 km/h (3 Bft)
09.01.2011 05:10 8,1 C 92 % 1003,9 hPa 0,3 mm 3,2 km/h (1 Bft) W-SW 247 0 min 0 UV-I 0 W/m 9,7 km/h (2 Bft)
09.01.2011 05:20 8,1 C 92 % 1004,0 hPa 0,3 mm 3,2 km/h (1 Bft) W-SW 247 0 min 0 UV-I 0 W/m 9,7 km/h (2 Bft)
09.01.2011 05:30 8,0 C 92 % 1004,2 hPa 0,3 mm 1,6 km/h (1 Bft) W 270 0 min 0 UV-I 0 W/m 8,0 km/h (2 Bft)
09.01.2011 05:40 7,9 C 92 % 1004,3 hPa 0,0 mm 3,2 km/h (1 Bft) W 270 0 min 0 UV-I 0 W/m 11,3 km/h (2 Bft)
09.01.2011 05:50 7,8 C 92 % 1004,3 hPa 0,3 mm 3,2 km/h (1 Bft) W-SW 247 0 min 0 UV-I 0 W/m 9,7 km/h (2 Bft)
09.01.2011 06:00 7,7 C 92 % 1004,4 hPa 0,3 mm 1,6 km/h (1 Bft) W-SW 247 0 min 0 UV-I 0 W/m 6,4 km/h (2 Bft)
09.01.2011 06:10 7,6 C 92 % 1004,5 hPa 0,5 mm 1,6 km/h (1 Bft) W-SW 247 0 min 0 UV-I 0 W/m 6,4 km/h (2 Bft)
09.01.2011 06:20 7,5 C 92 % 1004,5 hPa 0,0 mm 4,8 km/h (1 Bft) W-SW 247 0 min 0 UV-I 0 W/m 11,3 km/h (2 Bft)
09.01.2011 06:30 7,4 C 92 % 1004,7 hPa 0,5 mm 4,8 km/h (1 Bft) W-SW 247 0 min 0 UV-I 0 W/m 11,3 km/h (2 Bft)
09.01.2011 06:40 7,3 C 92 % 1005,1 hPa 0,3 mm 4,8 km/h (1 Bft) W 270 0 min 0 UV-I 0 W/m 19,3 km/h (3 Bft)
09.01.2011 06:50 6,9 C 91 % 1005,4 hPa 0,3 mm 8,0 km/h (2 Bft) W 270 0 min 0 UV-I 0 W/m 17,7 km/h (3 Bft)
09.01.2011 07:00 6,4 C 91 % 1005,5 hPa 0,3 mm 6,4 km/h (2 Bft) W 270 0 min 0 UV-I 0 W/m 16,1 km/h (3 Bft)
09.01.2011 07:10 6,1 C 91 % 1005,6 hPa 0,3 mm 6,4 km/h (2 Bft) W 270 0 min 0 UV-I 0 W/m 16,1 km/h (3 Bft)
09.01.2011 07:20 5,8 C 91 % 1005,9 hPa 0,3 mm 4,8 km/h (1 Bft) W 270 0 min 0 UV-I 0 W/m 14,5 km/h (3 Bft)
09.01.2011 07:30 5,7 C 91 % 1006,2 hPa 0,0 mm 3,2 km/h (1 Bft) W 270 0 min 0 UV-I 0 W/m 14,5 km/h (3 Bft)
09.01.2011 07:40 5,6 C 91 % 1006,2 hPa 0,3 mm 4,8 km/h (1 Bft) W-SW 247 0 min 0 UV-I 0 W/m 17,7 km/h (3 Bft)
09.01.2011 07:50 5,3 C 91 % 1006,7 hPa 0,3 mm 8,0 km/h (2 Bft) W 270 0 min 0 UV-I 0 W/m 20,9 km/h (4 Bft)
09.01.2011 08:00 4,9 C 91 % 1007,0 hPa 0,3 mm 5,8 km/h (2 Bft) SW 235 0 min 0 UV-I 0 W/m 16,1 km/h (3 Bft)
09.01.2011 08:10 4,8 C 91 % 1007,2 hPa 0,5 mm 6,4 km/h (2 Bft) W 270 0 min 0 UV-I 0 W/m 17,7 km/h (3 Bft)
09.01.2011 08:20 4,7 C 91 % 1007,3 hPa 0,3 mm 4,8 km/h (1 Bft) W 270 0 min 0 UV-I 0 W/m 14,5 km/h (3 Bft)
09.01.2011 08:30 4,6 C 91 % 1007,5 hPa 0,3 mm 3,2 km/h (1 Bft) W 270 0 min 0 UV-I 0 W/m 16,1 km/h (3 Bft)
09.01.2011 08:40 4,4 C 91 % 1007,6 hPa 0,3 mm 4,8 km/h (1 Bft) W 270 0 min 0 UV-I 0 W/m 16,1 km/h (3 Bft)
09.01.2011 08:50 4,4 C 91 % 1007,7 hPa 0,0 mm 3,2 km/h (1 Bft) W 270 0 min 0 UV-I 5 W/m 11,3 km/h (2 Bft)
09.01.2011 09:00 4,3 C 91 % 1007,7 hPa 0,0 mm 3,2 km/h (1 Bft) W-SW 247 0 min 0 UV-I 5 W/m 11,3 km/h (2 Bft)
09.01.2011 09:10 4,2 C 91 % 1007,9 hPa 0,0 mm 3,2 km/h (1 Bft) SW 225 0 min 0 UV-I 9 W/m 9,7 km/h (2 Bft)
09.01.2011 09:20 4,1 C 91 % 1007,8 hPa 0,0 mm 1,6 km/h (1 Bft) W-SW 247 0 min 0 UV-I 9 W/m 6,4 km/h (2 Bft)
09.01.2011 09:30 4,1 C 91 % 1007,9 hPa 0,3 mm 1,6 km/h (1 Bft) SW 225 0 min 0 UV-I 14 W/m 6,4 km/h (2 Bft)
09.01.2011 09:40 4,1 C 91 % 1008,0 hPa 0,0 mm 1,6 km/h (1 Bft) SW 225 0 min 0 UV-I 26 W/m 8,0 km/h (2 Bft)
09.01.2011 09:50 4,1 C 91 % 1007,9 hPa 0,0 mm 1,6 km/h (1 Bft) S-SW 202 0 min 0 UV-I 26 W/m 8,0 km/h (2 Bft)
09.01.2011 10:00 4,1 C 91 % 1008,0 hPa 0,0 mm 1,6 km/h (1 Bft) W-SW 247 0 min 0 UV-I 26 W/m 8,0 km/h (2 Bft)
09.01.2011 10:10 4,2 C 91 % 1008,3 hPa 0,0 mm 1,6 km/h (1 Bft) SW 225 0 min 0 UV-I 28 W/m 6,4 km/h (2 Bft)
09.01.2011 10:20 4,2 C 91 % 1008,6 hPa 0,0 mm 1,6 km/h (1 Bft) SW 225 0 min 0 UV-I 21 W/m 8,0 km/h (2 Bft)
09.01.2011 10:30 4,2 C 91 % 1008,8 hPa 0,0 mm 3,2 km/h (1 Bft) W 270 0 min 0 UV-I 23 W/m 9,7 km/h (2 Bft)
09.01.2011 10:40 4,2 C 91 % 1009,0 hPa 0,0 mm 3,2 km/h (1 Bft) W-SW 247 0 min 0 UV-I 33 W/m 9,7 km/h (2 Bft)
09.01.2011 10:50 4,2 C 91 % 1009,0 hPa 0,0 mm 3,2 km/h (1 Bft) W-SW 247 0 min 0 UV-I 51 W/m 9,7 km/h (2 Bft)
09.01.2011 11:00 4,3 C 91 % 1009,1 hPa 0,0 mm 4,8 km/h (1 Bft) W-SW 247 0 min 0 UV-I 53 W/m 12,9 km/h (3 Bft)
09.01.2011 11:10 4,3 C 91 % 1009,2 hPa 0,0 mm 3,2 km/h (1 Bft) W-SW 247 0 min 0 UV-I 51 W/m 14,5 km/h (3 Bft)
09.01.2011 11:20 4,4 C 91 % 1009,2 hPa 0,0 mm 3,2 km/h (1 Bft) W-SW 247 0 min 0 UV-I 62 W/m 9,7 km/h (2 Bft)
09.01.2011 11:50 4,6 C 91 % 1009,3 hPa 0,0 mm 4,9 km/h (1 Bft) SW 232 0 min 0 UV-I 128 W/m 14,5 km/h (3 Bft)
09.01.2011 12:00 4,7 C 91 % 1009,6 hPa 0,0 mm 4,2 km/h (1 Bft) SW 230 10 min 1 UV-I 166 W/m 11,3 km/h (2 Bft)
09.01.2011 12:10 4,7 C 90 % 1009,6 hPa 0,0 mm 5,0 km/h (1 Bft) W-SW 251 10 min 1 UV-I 156 W/m 17,7 km/h (3 Bft)
09.01.2011 12:20 4,8 C 90 % 1009,7 hPa 0,0 mm 5,9 km/h (2 Bft) SW 236 10 min 1 UV-I 174 W/m 16,1 km/h (3 Bft)
09.01.2011 12:30 5,1 C 87 % 1009,8 hPa 0,0 mm 8,5 km/h (2 Bft) W-SW 238 10 min 1 UV-I 208 W/m 20,9 km/h (4 Bft)
09.01.2011 12:40 5,2 C 85 % 1009,9 hPa 0,0 mm 4,8 km/h (1 Bft) S-SW 206 10 min 1 UV-I 179 W/m 11,3 km/h (2 Bft)
09.01.2011 12:50 5,3 C 84 % 1010,0 hPa 0,0 mm 6,3 km/h (2 Bft) SW 220 10 min 1 UV-I 174 W/m 17,7 km/h (3 Bft)
09.01.2011 13:00 5,4 C 83 % 1010,1 hPa 0,0 mm 3,5 km/h (1 Bft) W 268 10 min 1 UV-I 169 W/m 11,3 km/h (2 Bft)
09.01.2011 13:10 5,5 C 83 % 1010,0 hPa 0,0 mm 4,1 km/h (1 Bft) W-SW 242 0 min 1 UV-I 152 W/m 20,9 km/h (4 Bft)
09.01.2011 13:20 5,4 C 82 % 1010,0 hPa 0,0 mm 6,6 km/h (2 Bft) W-SW 242 0 min 1 UV-I 149 W/m 20,9 km/h (4 Bft)
09.01.2011 13:30 5,5 C 82 % 1010,2 hPa 0,0 mm 4,0 km/h (1 Bft) SW 225 0 min 1 UV-I 135 W/m 14,5 km/h (3 Bft)
09.01.2011 13:40 5,5 C 82 % 1010,3 hPa 0,0 mm 4,7 km/h (1 Bft) W-SW 255 0 min 1 UV-I 122 W/m 19,3 km/h (3 Bft)
09.01.2011 13:50 5,5 C 82 % 1010,3 hPa 0,0 mm 4,2 km/h (1 Bft) W 281 0 min 0 UV-I 109 W/m 11,3 km/h (2 Bft)
09.01.2011 14:00 5,6 C 82 % 1010,6 hPa 0,0 mm 4,1 km/h (1 Bft) W 278 0 min 0 UV-I 102 W/m 14,5 km/h (3 Bft)
09.01.2011 14:10 5,6 C 82 % 1010,5 hPa 0,0 mm 5,6 km/h (1 Bft) SW 218 0 min 0 UV-I 92 W/m 17,7 km/h (3 Bft)
09.01.2011 14:20 5,6 C 82 % 1010,8 hPa 0,0 mm 5,0 km/h (1 Bft) W 269 0 min 0 UV-I 64 W/m 11,3 km/h (2 Bft)
09.01.2011 14:30 5,5 C 82 % 1011,0 hPa 0,0 mm 6,2 km/h (2 Bft) W-SW 244 0 min 0 UV-I 50 W/m 17,7 km/h (3 Bft)
09.01.2011 14:40 5,5 C 82 % 1011,1 hPa 0,0 mm 4,6 km/h (1 Bft) W-SW 238 0 min 0 UV-I 66 W/m 11,3 km/h (2 Bft)
09.01.2011 14:50 5,6 C 82 % 1011,2 hPa 0,0 mm 3,9 km/h (1 Bft) W-SW 258 0 min 0 UV-I 70 W/m 11,3 km/h (2 Bft)
09.01.2011 15:00 5,6 C 82 % 1011,3 hPa 0,0 mm 5,9 km/h (2 Bft) SW 225 0 min 0 UV-I 57 W/m 20,9 km/h (4 Bft)
09.01.2011 15:10 5,5 C 82 % 1011,3 hPa 0,0 mm 5,7 km/h (1 Bft) W-SW 242 0 min 0 UV-I 49 W/m 17,7 km/h (3 Bft)
09.01.2011 15:20 5,6 C 82 % 1011,4 hPa 0,0 mm 3,2 km/h (1 Bft) W-SW 247 0 min 0 UV-I 49 W/m 12,9 km/h (3 Bft)
09.01.2011 15:30 5,6 C 82 % 1011,5 hPa 0,0 mm 4,8 km/h (1 Bft) SW 225 0 min 0 UV-I 51 W/m 16,1 km/h (3 Bft)
09.01.2011 15:40 5,5 C 82 % 1011,7 hPa 0,0 mm 3,2 km/h (1 Bft) SW 225 0 min 0 UV-I 47 W/m 9,7 km/h (2 Bft)
09.01.2011 15:50 5,4 C 82 % 1012,1 hPa 0,0 mm 3,2 km/h (1 Bft) W-SW 247 0 min 0 UV-I 25 W/m 11,3 km/h (2 Bft)
09.01.2011 16:00 5,4 C 82 % 1012,0 hPa 0,0 mm 2,7 km/h (1 Bft) W-SW 248 0 min 0 UV-I 22 W/m 9,7 km/h (2 Bft)
09.01.2011 16:10 5,3 C 82 % 1012,1 hPa 0,0 mm 1,6 km/h (1 Bft) W-SW 247 10 min 0 UV-I 25 W/m 6,4 km/h (2 Bft)
09.01.2011 16:20 5,2 C 82 % 1012,2 hPa 0,0 mm 1,6 km/h (1 Bft) W-SW 247 10 min 0 UV-I 16 W/m 4,8 km/h (1 Bft)
09.01.2011 16:30 5,1 C 83 % 1012,3 hPa 0,0 mm 1,6 km/h (1 Bft) W-SW 247 0 min 0 UV-I 9 W/m 6,4 km/h (2 Bft)
09.01.2011 16:40 4,9 C 83 % 1012,5 hPa 0,0 mm 1,6 km/h (1 Bft) W-SW 247 0 min 0 UV-I 0 W/m 4,8 km/h (1 Bft)
09.01.2011 16:50 4,8 C 83 % 1012,5 hPa 0,0 mm 1,6 km/h (1 Bft) W-SW 247 0 min 0 UV-I 0 W/m 8,0 km/h (2 Bft)
09.01.2011 17:00 4,7 C 83 % 1012,8 hPa 0,0 mm 1,6 km/h (1 Bft) S-SW 202 0 min 0 UV-I 0 W/m 6,4 km/h (2 Bft)
09.01.2011 17:10 4,6 C 83 % 1012,9 hPa 0,0 mm 0,0 km/h (0 Bft) W-SW 247 0 min 0 UV-I 0 W/m 4,8 km/h (1 Bft)
09.01.2011 17:20 4,4 C 84 % 1013,1 hPa 0,0 mm 0,0 km/h (0 Bft) W-SW 247 0 min 0 UV-I 0 W/m 4,8 km/h (1 Bft)
09.01.2011 17:30 4,2 C 84 % 1013,4 hPa 0,0 mm 1,6 km/h (1 Bft) W-SW 247 0 min 0 UV-I 0 W/m 4,8 km/h (1 Bft)
09.01.2011 17:40 4,1 C 84 % 1013,5 hPa 0,0 mm 1,6 km/h (1 Bft) W-SW 247 0 min 0 UV-I 0 W/m 6,4 km/h (2 Bft)
09.01.2011 17:50 4,1 C 85 % 1013,6 hPa 0,0 mm 1,6 km/h (1 Bft) SW 225 0 min 0 UV-I 0 W/m 8,0 km/h (2 Bft)
09.01.2011 18:00 3,9 C 85 % 1013,8 hPa 0,0 mm 0,0 km/h (0 Bft) SW 225 0 min 0 UV-I 0 W/m 4,8 km/h (1 Bft)
09.01.2011 18:10 3,8 C 85 % 1013,9 hPa 0,0 mm 0,0 km/h (0 Bft) W-SW 247 0 min 0 UV-I 0 W/m 6,4 km/h (2 Bft)
09.01.2011 18:20 3,7 C 85 % 1014,1 hPa 0,0 mm 0,0 km/h (0 Bft) SW 225 0 min 0 UV-I 0 W/m 4,8 km/h (1 Bft)
09.01.2011 18:30 3,6 C 85 % 1014,3 hPa 0,0 mm 0,0 km/h (0 Bft) SW 225 0 min 0 UV-I 0 W/m 4,8 km/h (1 Bft)
09.01.2011 18:40 3,5 C 85 % 1014,4 hPa 0,0 mm 0,0 km/h (0 Bft) SW 225 0 min 0 UV-I 0 W/m 4,8 km/h (1 Bft)
09.01.2011 18:50 3,4 C 85 % 1014,4 hPa 0,0 mm 1,6 km/h (1 Bft) SW 225 0 min 0 UV-I 0 W/m 4,8 km/h (1 Bft)
09.01.2011 19:00 3,3 C 86 % 1014,5 hPa 0,0 mm 0,0 km/h (0 Bft) W-SW 247 0 min 0 UV-I 0 W/m 4,8 km/h (1 Bft)
09.01.2011 19:10 3,2 C 86 % 1014,8 hPa 0,0 mm 0,0 km/h (0 Bft) W-SW 247 0 min 0 UV-I 0 W/m 4,8 km/h (1 Bft)
09.01.2011 19:20 3,1 C 86 % 1014,8 hPa 0,0 mm 0,0 km/h (0 Bft) W-SW 247 0 min 0 UV-I 0 W/m 4,8 km/h (1 Bft)
09.01.2011 19:30 3,0 C 87 % 1015,0 hPa 0,0 mm 1,6 km/h (1 Bft) W-SW 247 0 min 0 UV-I 0 W/m 6,4 km/h (2 Bft)
09.01.2011 19:40 2,9 C 87 % 1015,2 hPa 0,0 mm 1,6 km/h (1 Bft) SW 225 0 min 0 UV-I 0 W/m 8,0 km/h (2 Bft)
09.01.2011 19:50 2,8 C 87 % 1015,4 hPa 0,0 mm 1,6 km/h (1 Bft) W-SW 247 0 min 0 UV-I 0 W/m 8,0 km/h (2 Bft)
09.01.2011 20:00 2,8 C 87 % 1015,4 hPa 0,0 mm 1,6 km/h (1 Bft) W-SW 247 0 min 0 UV-I 0 W/m 6,4 km/h (2 Bft)
09.01.2011 20:10 2,7 C 87 % 1015,8 hPa 0,0 mm 1,6 km/h (1 Bft) SW 225 0 min 0 UV-I 0 W/m 9,7 km/h (2 Bft)
09.01.2011 20:20 2,7 C 87 % 1015,9 hPa 0,0 mm 1,6 km/h (1 Bft) SW 225 0 min 0 UV-I 0 W/m 8,0 km/h (2 Bft)
09.01.2011 20:30 2,6 C 87 % 1016,0 hPa 0,0 mm 0,0 km/h (0 Bft) W-SW 247 0 min 0 UV-I 0 W/m 4,8 km/h (1 Bft)
09.01.2011 20:40 2,6 C 87 % 1016,1 hPa 0,0 mm 1,6 km/h (1 Bft) W-SW 247 0 min 0 UV-I 0 W/m 9,7 km/h (2 Bft)
09.01.2011 20:50 2,5 C 87 % 1016,3 hPa 0,0 mm 0,0 km/h (0 Bft) W-SW 247 0 min 0 UV-I 0 W/m 3,2 km/h (1 Bft)
09.01.2011 21:00 2,4 C 87 % 1016,4 hPa 0,0 mm 0,0 km/h (0 Bft) W-SW 247 0 min 0 UV-I 0 W/m 3,2 km/h (1 Bft)
09.01.2011 21:10 2,3 C 87 % 1016,3 hPa 0,0 mm 0,0 km/h (0 Bft) W-SW 247 0 min 0 UV-I 0 W/m 3,2 km/h (1 Bft)
09.01.2011 21:20 2,2 C 87 % 1016,8 hPa 0,0 mm 0,0 km/h (0 Bft) SW 225 0 min 0 UV-I 0 W/m 6,4 km/h (2 Bft)
09.01.2011 21:30 2,1 C 87 % 1016,7 hPa 0,0 mm 0,0 km/h (0 Bft) SW 225 0 min 0 UV-I 0 W/m 4,8 km/h (1 Bft)
09.01.2011 21:40 1,9 C 87 % 1016,9 hPa 0,0 mm 0,0 km/h (0 Bft) SW 225 0 min 0 UV-I 0 W/m 3,2 km/h (1 Bft)
09.01.2011 21:50 1,8 C 87 % 1017,0 hPa 0,0 mm 0,0 km/h (0 Bft) SW 225 0 min 0 UV-I 0 W/m 1,6 km/h (1 Bft)
09.01.2011 22:00 1,7 C 87 % 1017,0 hPa 0,0 mm 0,0 km/h (0 Bft) SW 225 0 min 0 UV-I 0 W/m 3,2 km/h (1 Bft)
09.01.2011 22:10 1,6 C 87 % 1017,3 hPa 0,0 mm 0,0 km/h (0 Bft) SW 225 0 min 0 UV-I 0 W/m 1,6 km/h (1 Bft)
09.01.2011 22:20 1,4 C 87 % 1017,3 hPa 0,0 mm 0,0 km/h (0 Bft) SW 225 0 min 0 UV-I 0 W/m 3,2 km/h (1 Bft)
09.01.2011 22:30 1,4 C 87 % 1017,4 hPa 0,0 mm 0,0 km/h (0 Bft) SW 225 0 min 0 UV-I 0 W/m 1,6 km/h (1 Bft)
09.01.2011 22:40 1,2 C 87 % 1017,5 hPa 0,0 mm 0,0 km/h (0 Bft) SW 225 0 min 0 UV-I 0 W/m 3,2 km/h (1 Bft)
09.01.2011 22:50 1,1 C 87 % 1017,5 hPa 0,0 mm 0,0 km/h (0 Bft) N 0 0 min 0 UV-I 0 W/m 0,0 km/h (0 Bft)
09.01.2011 23:00 1,0 C 87 % 1017,6 hPa 0,0 mm 0,0 km/h (0 Bft) N 0 0 min 0 UV-I 0 W/m 0,0 km/h (0 Bft)
09.01.2011 23:10 0,8 C 87 % 1017,7 hPa 0,0 mm 0,0 km/h (0 Bft) N 0 0 min 0 UV-I 0 W/m 0,0 km/h (0 Bft)
09.01.2011 23:20 0,7 C 87 % 1017,9 hPa 0,0 mm 0,0 km/h (0 Bft) N 0 0 min 0 UV-I 0 W/m 0,0 km/h (0 Bft)
09.01.2011 23:30 0,5 C 87 % 1017,9 hPa 0,0 mm 0,0 km/h (0 Bft) N 0 0 min 0 UV-I 0 W/m 0,0 km/h (0 Bft)
09.01.2011 23:40 0,3 C 87 % 1018,1 hPa 0,0 mm 0,0 km/h (0 Bft) N 0 0 min 0 UV-I 0 W/m 0,0 km/h (0 Bft)
09.01.2011 23:50 0,1 C 87 % 1018,1 hPa 0,0 mm 0,0 km/h (0 Bft) N 0 0 min 0 UV-I 0 W/m 0,0 km/h (0 Bft)
_ Min-Zeit 23:50 13:20 01:50 - 00:00 - - - - - 00:10
Minimum _ 0,0 C 82 % 1003,4 hPa - 0,0 km/h (0 Bft) - - - - - 0,0 km/h (0 Bft)
_ Max-Zeit 00:00 05:00 23:40 03:00 12:30 - - 12:00 12:30 12:30 07:50
Maximum _ 8,8 C 92 % 1018,1 hPa 0,5 mm 8,5 km/h
W-SW (2 Bft)
- - 10 min 1 UV-I 208 W/m 20,9 km/h
W (4 Bft)
Durchschnitt _ 5,2 C 88 % 1009,6 hPa #9,4 mm 2,2 km/h (1 Bft) W-SW - #1:30 h 1 UV-I 72 W/m 8,2 km/h (2 Bft)